GFSSE_prec_cloud_057.txt.gz
Cloud_Cover
6 0 0 0 3 3 5 5 5 5 5 0 0 2 19 93 100 100 89 100 97 78 75 100 100 100 53 100 100 100 60 94 82 100 9 5 5 5 5 15 5 84 55
0 0 0 0 0 5 5 5 5 5 5 0 0 0 5 43 100 100 100 100 94 62 94 99 100 100 81 100 100 100 93 100 100 96 46 5 53 5 11 5 5 5 8
0 0 0 0 0 6 0 5 5 5 1 0 0 0 3 58 100 14 100 100 100 100 100 100 100 90 77 100 100 100 100 100 100 96 91 7 40 98 82 5 6 5 10
2 0 0 0 0 7 5 5 0 0 1 3 0 2 3 91 99 98 89 100 99 100 100 100 100 59 66 100 100 100 91 100 100 91 62 12 62 34 80 100 59 6 5
3 0 0 0 0 2 0 0 0 0 0 0 0 5 98 15 100 100 56 100 100 100 100 100 100 98 100 100 100 100 95 100 100 40 11 16 20 21 5 97 100 81 5
4 0 0 0 0 0 0 0 4 0 2 3 0 5 5 56 100 54 100 100 100 100 100 100 100 100 66 50 100 100 85 100 94 100 100 63 22 5 9 5 7 95 15
2 0 0 0 0 0 0 0 0 0 0 0 5 5 5 100 100 100 100 99 99 100 100 100 100 100 76 65 98 100 97 100 100 48 100 100 58 37 32 30 76 5 9
0 4 0 0 0 1 4 0 0 0 0 2 0 0 5 92 100 100 94 51 100 100 72 91 98 100 89 97 100 99 76 88 100 99 95 7 5 7 55 10 100 72 8
35 40 6 11 0 5 78 25 5 5 4 0 2 4 5 9 30 99 99 34 14 8 95 100 91 16 88 97 52 100 100 100 53 100 100 69 7 24 68 27 53 87 81
100 100 83 46 78 62 45 65 88 21 5 0 0 5 5 5 0 23 26 5 5 5 89 100 100 100 100 100 100 99 90 100 100 49 100 94 23 16 77 5 5 91 78
98 100 62 69 100 98 57 100 93 100 59 17 2 0 0 0 0 5 14 5 5 5 51 97 99 100 100 100 100 100 92 89 100 41 47 51 39 27 58 80 22 5 22
97 92 77 100 100 100 100 94 100 91 43 35 55 5 3 5 5 5 76 33 6 5 5 5 14 69 60 56 72 89 81 94 80 99 100 100 100 18 96 100 91 100 16
100 90 100 100 100 100 100 100 100 100 98 31 46 96 17 10 8 5 15 5 8 8 5 14 5 89 100 100 100 100 100 71 26 64 20 47 45 100 97 100 100 100 79
99 16 100 100 100 100 100 100 100 100 100 88 56 95 100 73 23 25 50 7 21 70 98 36 90 100 62 97 88 100 96 5 45 29 5 16 100 94 89 100 100 100 100
89 36 64 100 100 100 100 100 100 100 100 98 70 96 100 100 38 32 5 42 100 60 46 100 99 29 8 90 97 100 100 46 44 100 92 54 75 100 100 100 100 100 100
80 100 100 100 100 100 100 100 100 100 100 100 100 100 100 100 96 70 44 30 40 8 13 6 50 44 47 19 100 27 100 55 33 91 97 71 78 99 100 100 100 100 100
36 100 100 100 100 100 100 100 100 100 100 100 100 100 100 100 100 100 99 95 70 52 5 5 40 31 43 43 8 11 91 86 5 6 51 97 97 49 78 100 87 99 100
91 90 100 100 100 100 100 100 100 100 100 100 100 100 100 100 100 100 100 100 96 82 12 15 11 41 94 44 51 44 44 51 69 10 5 13 18 59 72 88 58 56 82
76 94 96 100 100 100 100 100 100 100 100 100 100 100 100 100 100 100 100 100 100 100 81 31 64 50 66 93 60 96 87 100 64 98 100 100 100 64 38 99 6 28 5
72 98 100 100 100 100 98 100 100 100 100 100 100 100 100 100 100 100 100 100 100 93 77 64 90 100 99 41 24 15 99 67 100 100 100 88 20 72 11 16 93 88 100
100 84 100 98 100 100 100 100 100 100 100 100 100 100 100 100 100 100 100 100 100 100 100 70 80 100 100 32 21 100 100 100 100 100 100 44 15 5 5 25 100 32 83
100 24 92 100 100 100 100 100 99 100 100 100 100 100 100 100 100 100 100 82 92 100 100 100 95 80 38 99 100 100 100 100 100 100 94 27 13 7 8 6 10 13 82
100 73 75 67 94 100 100 100 100 100 100 89 100 100 100 100 100 98 90 84 73 94 97 100 100 100 100 97 100 100 100 100 97 100 100 99 83 92 74 39 54 40 65
100 100 100 100 15 48 100 100 100 92 99 94 100 100 100 100 96 80 83 100 100 100 100 100 100 100 100 100 100 100 100 100 98 55 85 100 100 98 21 70 47 54 95
93 100 100 100 100 76 100 63 93 100 100 100 99 100 94 97 97 100 100 100 100 100 100 100 100 100 100 100 100 100 100 100 99 92 96 100 100 100 100 100 100 100 98
23 5 86 100 100 85 100 64 100 100 100 95 26 43 41 20 100 100 100 100 99 100 100 100 100 100 100 100 100 100 100 100 100 100 100 100 100 100 100 100 100 100 100

GFSSE_prec_cloud_060.txt.gz
Cloud_Cover
0 0 0 0 0 4 5 4 0 0 3 19 5 5 5 97 96 100 100 100 100 100 100 100 100 100 94 100 100 100 92 87 46 5 5 5 2 5 2 5 4 5 5
2 0 0 0 0 5 0 0 0 0 1 40 5 5 5 60 99 100 100 99 91 100 100 100 100 98 74 100 100 100 59 100 100 35 5 9 5 5 4 0 5 5 5
16 0 0 0 0 2 0 0 0 0 0 0 5 5 5 13 77 100 92 100 99 98 100 100 100 100 100 100 100 100 100 100 100 10 29 5 5 70 58 21 5 16 3
8 12 0 0 0 7 0 0 0 0 4 5 5 5 5 90 88 65 61 76 94 100 100 100 100 98 100 100 100 100 100 100 47 7 7 55 19 5 47 84 6 6 10
13 14 0 0 0 8 0 0 0 0 2 4 15 0 33 89 100 25 64 100 95 100 100 100 100 100 100 100 100 100 100 100 91 49 62 97 75 72 5 6 6 5 12
14 2 0 0 0 6 0 0 0 4 11 100 23 16 18 78 100 100 98 77 100 100 100 100 100 100 100 100 91 100 100 100 100 100 100 100 50 95 72 16 11 22 5
42 1 7 0 0 0 14 0 0 0 5 65 3 5 12 54 98 100 100 100 100 100 100 100 100 100 85 100 100 100 84 100 100 82 83 100 94 79 79 67 35 61 56
100 97 9 3 13 9 5 0 0 1 1 5 5 4 17 100 97 100 100 98 100 100 100 97 100 100 85 96 100 80 59 60 100 100 99 28 92 82 40 49 48 48 24
99 100 64 20 92 100 100 77 0 5 5 5 1 3 10 25 85 100 57 100 100 100 100 100 100 90 100 100 92 97 99 93 100 100 100 76 54 42 24 74 24 5 17
99 92 96 97 100 100 100 80 90 4 5 5 5 1 4 5 5 31 8 42 99 8 11 100 100 100 100 100 100 98 90 99 84 100 83 83 60 12 33 72 75 63 68
86 100 100 100 100 100 100 100 40 11 6 7 5 5 0 0 4 5 5 5 5 5 6 52 100 92 92 100 99 100 100 98 100 98 60 87 95 100 99 95 100 100 100
12 98 100 100 98 100 98 100 100 73 76 5 5 5 5 4 3 0 4 2 2 5 5 5 7 91 91 67 92 74 100 100 100 100 88 59 100 100 53 100 100 100 100
26 84 100 70 15 95 100 51 100 99 91 95 46 27 16 4 7 5 8 24 6 6 5 5 9 60 100 82 97 99 87 84 92 56 89 48 100 80 100 100 100 100 100
34 100 63 100 91 100 100 80 100 100 100 92 66 85 55 35 17 50 44 5 59 47 54 79 58 30 100 99 78 100 100 100 99 83 15 37 47 100 99 100 100 100 95
100 100 98 70 100 100 100 96 100 100 100 100 98 100 68 99 46 31 8 72 69 70 80 76 49 41 23 17 5 23 80 100 99 93 80 99 100 100 100 100 100 100 100
100 100 99 100 100 100 100 89 100 100 100 100 100 100 100 100 82 83 60 5 5 42 51 25 54 98 24 5 5 74 8 96 35 45 79 42 59 22 49 89 100 100 100
100 100 100 100 100 91 100 97 100 100 100 100 100 100 100 100 100 100 83 51 35 7 52 82 61 100 96 10 6 5 6 5 17 25 6 21 30 77 67 73 100 100 80
100 100 100 100 100 100 100 100 100 72 100 100 100 100 100 100 100 100 100 44 51 19 50 44 55 73 46 26 90 61 40 74 24 23 5 7 64 92 92 100 92 74 100
100 100 100 100 100 100 98 99 100 97 100 100 100 100 100 100 100 100 100 94 71 87 94 92 92 98 100 100 100 100 89 98 89 44 23 94 20 60 22 72 83 77 100
100 100 94 100 100 100 100 99 100 88 90 100 100 100 100 100 100 100 100 100 100 84 100 100 95 38 80 80 78 91 92 96 100 33 67 62 75 37 66 23 11 29 37
14 100 100 100 100 100 100 100 100 100 100 96 100 100 100 100 100 100 100 96 100 100 100 100 100 90 89 100 67 82 100 100 100 100 100 25 51 60 100 68 90 24 92
65 100 100 99 100 100 100 100 100 100 100 100 100 100 100 100 100 100 19 13 5 52 47 91 97 100 100 100 95 96 97 87 72 100 100 99 100 99 78 100 75 77 17
72 100 100 100 100 100 100 100 100 100 100 100 100 100 100 100 100 74 35 48 13 98 50 42 34 100 100 100 98 98 100 98 100 100 99 100 86 99 100 100 69 60 82
3 22 78 100 100 100 100 100 100 100 100 100 100 100 100 100 100 97 100 88 99 100 100 100 100 100 100 100 100 100 100 100 100 100 100 100 100 100 97 84 79 46 41
4 5 0 73 100 100 100 100 100 100 100 99 100 100 100 97 100 100 100 96 96 100 100 100 100 100 100 100 100 100 100 99 100 100 100 100 100 100 100 90 98 99 96
17 1 4 10 20 93 100 100 98 100 100 100 100 100 100 100 99 100 100 100 100 100 100 100 100 100 100 100 100 100 100 100 100 100 100 100 100 100 100 100 100 100 100

GFSSE_prec_cloud_063.txt.gz
Cloud_Cover
2 8 1 0 0 0 0 0 12 1 0 4 5 5 5 79 100 44 72 73 7 100 100 100 100 99 100 60 100 100 16 6 5 3 0 0 0 0 0 4 0 0 3
0 6 0 0 0 0 0 0 0 0 0 2 5 5 5 82 96 100 100 72 67 85 92 100 100 100 100 100 100 99 31 98 5 5 2 5 3 2 6 0 0 0 21
1 8 0 0 0 0 1 4 0 0 0 2 5 5 5 34 100 95 95 64 98 24 100 100 100 96 100 100 100 100 100 100 98 5 5 5 2 24 10 3 2 5 6
0 7 26 0 0 0 0 0 0 1 0 0 5 5 11 98 100 93 11 87 50 88 100 100 100 89 75 87 100 100 100 53 7 5 5 5 5 5 43 5 17 5 11
0 0 7 0 0 0 0 3 11 82 20 4 0 1 76 100 100 49 31 57 72 100 100 100 100 100 80 99 100 100 100 15 5 5 5 8 5 5 25 5 6 5 5
40 5 4 1 2 0 0 0 5 76 43 4 0 1 55 31 84 47 100 32 99 79 100 100 100 90 38 100 100 100 100 99 5 5 40 100 48 5 5 6 5 11 5
30 64 12 62 2 0 0 0 4 7 2 0 5 42 100 97 11 42 97 100 100 97 100 98 99 99 75 100 8 100 100 100 81 5 88 95 46 26 29 12 8 5 7
88 65 51 16 5 8 2 0 1 5 2 6 100 100 100 100 100 92 100 100 100 100 100 100 100 88 97 100 59 100 96 100 92 91 100 38 10 39 91 91 44 30 28
100 87 90 27 11 41 6 12 0 0 0 14 100 100 100 67 76 100 97 100 100 100 100 99 81 90 39 100 100 10 12 19 100 60 98 25 14 53 100 100 99 91 93
83 100 100 94 94 20 94 77 8 0 1 4 27 46 48 7 5 66 100 100 98 58 16 5 36 34 56 21 30 52 86 44 77 70 20 100 77 100 100 100 95 100 95
72 92 100 100 100 100 16 73 24 10 4 2 0 4 10 12 5 7 32 78 6 93 93 74 100 19 18 92 94 18 100 99 100 95 67 41 100 100 100 100 100 100 100
53 51 93 100 96 91 84 14 81 71 30 26 9 25 13 13 23 33 5 8 95 27 16 100 68 24 67 21 7 9 52 67 57 73 40 22 18 100 100 100 87 100 100
95 91 77 85 100 98 95 70 10 97 68 16 17 18 6 10 10 16 24 5 18 94 99 56 63 100 98 9 41 79 95 92 88 17 53 20 43 70 74 91 100 100 100
100 100 100 74 87 100 99 80 87 57 74 36 15 5 5 6 22 19 16 10 5 82 100 38 9 74 100 100 64 100 96 100 55 27 55 56 61 71 100 100 100 100 100
99 100 100 95 93 100 96 78 6 5 96 100 84 30 11 28 12 8 4 10 36 56 86 94 43 75 100 87 11 7 86 42 98 45 96 99 97 100 84 100 100 100 100
96 78 100 100 96 100 100 100 100 65 99 100 100 99 64 30 17 5 14 5 6 34 78 99 100 98 68 88 57 8 13 74 45 42 43 59 88 80 80 100 53 87 100
100 100 100 100 100 100 100 100 95 100 67 100 100 100 100 100 98 100 98 58 5 5 5 42 90 81 36 81 33 7 36 88 100 96 73 84 100 100 98 95 100 100 100
12 97 100 100 100 100 100 100 99 97 66 94 100 100 100 100 100 100 100 67 6 6 5 37 5 98 51 64 87 40 53 100 100 100 50 56 76 69 100 100 98 100 100
2 7 100 100 100 100 100 100 100 100 82 100 94 100 100 100 100 100 100 100 61 21 92 16 5 6 14 91 100 100 88 99 98 94 100 100 100 100 91 100 94 100 100
0 0 73 100 100 100 100 100 100 100 100 100 100 99 100 100 100 100 100 100 100 96 89 96 64 5 6 41 98 99 59 68 71 51 59 100 48 100 100 100 100 100 100
8 4 0 55 100 100 100 100 100 100 100 100 100 100 100 100 100 100 100 100 100 86 55 96 92 94 98 81 100 97 40 27 59 66 100 100 100 100 86 100 86 100 83
100 3 5 0 35 70 100 100 100 100 100 100 100 100 100 100 100 100 100 100 99 20 39 63 59 97 94 99 100 100 98 75 93 90 100 100 98 95 100 18 100 96 49
94 0 0 1 39 51 76 100 100 100 100 100 100 100 100 100 100 100 100 97 34 67 11 9 83 40 100 100 100 100 100 89 70 91 93 100 100 93 100 100 95 77 86
100 44 0 0 15 35 93 22 92 100 100 100 100 100 100 100 100 100 100 100 98 96 30 7 5 37 99 100 100 100 100 100 98 99 100 100 100 100 97 100 100 86 100
95 95 6 5 3 4 54 42 62 15 50 99 100 72 100 100 100 100 100 100 100 100 99 100 100 100 100 100 100 100 100 100 100 100 100 100 100 100 100 100 100 99 87
66 100 42 98 8 5 57 48 95 8 56 93 94 98 17 80 100 100 100 100 100 100 94 94 100 95 87 96 100 100 100 100 100 100 100 100 100 100 100 100 100 100 99

GFSSE_prec_cloud_069.txt.gz
Cloud_Cover
50 1 1 0 0 0 0 0 5 5 5 5 5 78 59 25 5 100 100 84 5 2 8 82 100 100 23 100 80 16 99 5 12 6 5 5 6 0 0 0 0 0 0
54 0 2 0 0 0 0 0 0 0 4 5 5 5 58 100 5 5 99 97 6 6 25 100 100 24 76 100 83 6 30 5 52 5 4 5 2 0 0 0 0 0 0
95 18 5 3 2 0 9 0 0 0 0 3 5 5 5 41 100 72 51 40 70 5 50 100 97 100 64 6 91 34 100 97 58 32 5 64 5 3 0 0 0 0 11
18 71 17 5 28 0 9 10 10 6 0 0 4 2 5 30 99 90 15 5 5 6 100 97 100 93 84 58 55 100 100 100 96 72 14 10 10 5 5 0 1 14 3
19 79 84 5 0 0 0 1 6 2 4 0 3 5 5 67 63 100 63 18 5 13 100 99 100 100 100 42 100 100 100 94 27 5 38 90 15 5 5 0 0 0 6
85 19 5 51 0 0 1 0 0 6 0 0 0 2 43 100 90 100 73 9 12 95 100 100 100 100 100 68 100 100 88 10 5 74 99 42 97 5 0 0 1 0 5
99 77 9 79 10 5 0 0 0 0 0 1 14 41 96 82 55 100 24 22 100 100 100 100 100 100 99 73 100 100 49 5 5 17 10 50 5 5 5 5 5 5 4
96 98 98 100 99 28 5 0 0 3 2 100 100 100 100 25 53 19 5 33 96 100 100 100 100 94 100 97 100 43 5 58 32 48 97 85 5 5 82 12 5 95 58
85 100 100 100 100 100 5 1 1 5 95 17 9 23 41 5 30 61 99 49 97 100 100 100 100 94 94 100 100 5 29 23 22 99 88 88 50 62 100 42 5 100 100
47 100 64 100 100 100 99 17 1 1 5 6 73 73 5 5 22 8 100 100 100 100 100 100 100 76 61 100 99 99 88 37 74 100 98 93 100 100 100 11 22 100 99
47 100 96 100 100 100 100 85 7 2 4 11 6 5 44 42 59 99 50 89 100 100 100 100 100 100 66 100 100 41 22 86 93 80 100 86 91 68 100 100 17 76 73
88 94 100 100 100 100 100 100 98 40 17 13 20 13 21 63 59 100 93 100 100 100 99 95 66 100 49 89 10 22 76 91 65 83 92 100 90 37 70 49 88 100 100
24 100 22 100 100 100 100 100 100 100 40 83 25 66 48 100 49 100 100 100 100 99 45 17 93 100 69 54 100 66 62 90 71 44 100 90 74 65 100 98 100 100 100
0 39 100 60 79 100 96 99 99 100 100 100 100 47 12 6 98 100 100 78 80 96 58 72 52 92 100 59 100 100 98 100 91 100 100 100 100 100 100 100 100 100 100
0 16 94 100 68 91 100 77 47 98 100 98 72 82 14 12 6 43 96 100 97 99 100 100 100 89 65 100 85 79 91 79 95 100 100 95 100 100 100 100 98 100 100
3 10 41 100 100 100 70 100 81 100 100 99 100 85 51 21 5 22 91 71 93 67 100 68 50 94 92 98 100 100 100 99 96 55 60 97 100 100 100 100 99 90 50
0 14 28 80 100 100 100 100 100 100 100 93 98 93 73 100 96 13 59 42 98 43 25 100 100 100 58 25 100 100 86 80 100 100 86 92 100 100 99 81 28 98 98
0 0 5 5 19 94 100 100 100 100 97 84 100 99 97 100 100 100 100 81 87 78 6 31 21 55 92 99 100 100 100 100 100 97 98 100 100 100 100 92 100 100 100
5 2 4 3 22 100 100 98 100 100 100 100 100 93 73 100 98 100 100 98 100 100 79 75 95 100 100 100 78 100 95 84 92 100 99 87 96 73 100 100 100 100 91
0 0 4 2 13 92 100 100 100 100 100 87 100 100 83 69 90 100 100 100 100 100 100 97 6 16 96 82 100 100 100 86 100 100 99 99 97 75 95 98 100 100 100
0 0 5 5 10 18 100 100 72 94 97 100 100 100 100 96 66 100 100 100 100 100 100 58 63 10 20 83 100 78 95 26 77 31 97 100 53 100 97 99 100 100 100
0 4 5 59 12 13 5 100 100 100 100 100 100 100 92 100 100 100 100 100 100 100 100 90 98 85 82 82 33 96 81 90 37 95 99 96 72 88 73 100 89 63 7
0 0 0 22 49 10 54 4 69 100 100 100 100 95 100 94 100 100 97 100 100 100 100 100 98 91 82 85 83 76 82 91 56 100 100 75 85 87 97 98 96 100 54
0 0 0 3 26 10 11 5 5 58 100 100 100 100 100 100 85 100 100 100 100 100 100 100 100 100 100 66 92 61 84 100 100 100 100 100 80 98 100 100 100 100 87
0 0 0 0 99 77 51 12 8 6 18 100 100 100 100 100 100 100 100 100 100 100 100 100 100 100 100 98 100 97 100 100 100 100 100 100 100 100 100 100 100 100 100
0 0 0 0 52 100 77 9 5 17 25 30 100 100 100 100 100 100 100 100 100 100 100 100 100 100 99 87 99 100 100 100 100 100 100 100 100 100 100 100 100 100 58

GFSSE_prec_cloud_072.txt.gz
Cloud_Cover
4 8 4 1 0 0 0 1 5 22 8 56 32 95 70 100 100 100 100 100 45 52 36 18 99 97 73 100 100 95 13 95 78 8 9 12 5 5 5 0 0 0 0
45 55 5 1 0 0 0 0 0 5 5 5 5 7 100 99 33 89 100 21 72 7 5 95 100 100 85 100 67 34 31 8 5 51 57 46 5 5 5 5 1 1 3
50 35 5 0 0 0 0 0 6 1 0 1 2 5 18 96 94 5 59 100 60 5 13 100 100 99 71 100 91 71 71 100 55 77 81 63 5 5 5 3 5 18 4
5 5 6 4 0 0 0 0 0 4 0 0 0 3 98 87 100 5 64 28 19 5 97 100 59 94 100 30 100 100 100 100 100 57 34 87 80 8 5 5 4 1 0
68 12 38 11 5 1 0 0 0 1 0 0 0 2 5 27 98 12 11 5 10 5 100 89 98 100 85 29 100 100 100 100 88 86 100 100 74 37 5 5 2 0 15
100 88 100 100 90 4 4 0 0 0 0 0 0 1 5 42 85 11 5 4 5 16 92 18 97 83 100 97 100 100 100 100 100 95 88 81 36 5 5 9 25 0 2
93 99 100 100 100 57 3 0 4 1 5 0 0 17 70 99 100 99 46 9 5 12 49 100 100 100 100 100 100 100 100 74 100 84 82 86 64 18 5 5 96 8 5
93 42 100 100 100 100 8 3 3 4 88 5 7 5 100 95 77 100 36 5 25 5 51 100 100 100 100 97 100 100 80 23 93 97 73 60 21 76 95 5 99 100 100
6 35 80 96 82 100 100 46 11 4 7 27 15 19 51 70 96 11 6 32 63 100 100 85 100 100 98 100 99 99 66 9 19 22 83 77 66 100 97 5 39 37 79
36 100 100 100 100 100 100 100 7 5 68 13 13 5 26 86 8 14 7 32 87 100 100 99 100 95 84 100 100 100 97 74 99 74 51 99 100 90 78 47 8 86 36
33 100 100 100 100 100 100 100 82 2 5 34 96 3 5 72 97 53 14 94 93 100 52 84 100 100 100 100 100 100 97 81 100 85 88 59 67 41 100 88 11 90 100
84 90 100 100 100 100 100 100 100 98 48 14 5 5 5 66 84 100 100 88 99 100 10 100 56 94 17 48 100 99 98 79 61 85 95 96 100 7 44 100 87 91 100
99 94 14 87 81 100 100 100 100 100 100 72 82 8 29 7 39 88 80 53 76 58 37 100 72 79 9 40 71 68 100 65 72 89 29 11 67 72 76 100 100 84 100
56 70 55 57 94 97 97 99 97 100 100 100 100 100 66 98 11 100 100 81 84 72 5 23 20 55 24 44 96 71 50 99 98 100 100 98 39 36 99 100 100 100 100
13 16 0 90 99 100 91 96 74 92 95 75 90 96 92 30 99 100 80 99 74 44 71 85 38 76 73 85 85 99 71 100 100 72 90 100 100 100 100 99 92 100 100
1 4 0 20 100 100 84 90 93 83 64 78 100 88 56 9 6 36 96 60 100 100 74 54 100 7 100 54 75 92 36 77 5 39 100 90 100 96 100 52 29 5 42
2 2 0 6 94 100 100 95 88 91 100 88 96 100 100 100 20 5 10 72 88 100 79 99 87 55 10 41 62 64 37 53 100 100 86 16 55 98 100 24 7 5 14
0 1 0 0 7 4 100 100 66 88 87 79 84 82 100 99 100 100 95 100 100 99 40 9 99 8 7 45 49 57 99 100 100 100 100 81 98 51 37 94 6 100 100
0 0 0 0 0 5 100 100 100 100 100 70 59 99 100 67 100 100 100 95 100 100 100 46 26 13 100 100 100 97 100 96 76 100 100 88 95 40 68 5 98 100 100
0 0 0 0 0 11 16 100 100 100 99 100 86 84 100 100 89 71 99 100 100 100 100 100 96 66 5 97 94 27 14 16 98 5 98 27 97 100 100 100 97 100 100
0 0 0 0 0 0 5 45 100 100 100 100 100 99 100 100 100 65 80 65 99 100 100 100 39 100 92 12 27 41 82 7 62 70 19 14 100 100 100 100 94 100 100
0 0 0 0 0 0 2 26 100 100 83 99 99 11 100 100 100 100 95 70 84 100 100 100 83 92 47 5 6 5 5 5 84 50 61 100 71 100 100 100 78 88 100
0 0 0 0 0 0 96 8 92 100 100 74 84 82 15 78 92 100 100 100 51 99 100 100 100 85 61 80 96 70 56 37 30 9 80 90 96 99 90 100 88 89 100
0 0 0 0 0 0 4 0 4 100 100 100 94 89 99 100 96 100 100 100 100 96 100 100 100 96 69 86 100 100 100 14 35 28 92 96 100 100 100 100 100 73 79
0 0 0 0 0 0 1 4 0 4 69 100 100 100 100 100 75 81 99 100 100 100 100 100 100 100 100 100 100 100 100 61 40 46 100 100 100 100 100 94 100 94 100
0 0 0 0 0 0 0 5 5 5 3 4 98 100 100 71 99 100 100 100 100 100 100 100 100 96 100 100 100 100 100 100 100 100 100 100 100 100 100 100 100 100 100

GFSSE_prec_cloud_075.txt.gz
Cloud_Cover
35 2 0 0 0 0 0 0 5 5 5 16 100 100 100 100 100 100 100 100 100 100 69 84 100 99 62 90 100 100 42 52 65 95 96 83 14 5 5 5 5 5 5
2 0 0 0 0 0 0 0 3 0 2 5 5 36 25 80 93 100 100 100 100 23 5 92 10 71 53 100 100 58 5 18 68 89 100 71 53 30 7 7 5 5 16
5 30 6 0 0 0 0 0 0 0 5 5 5 5 9 90 70 21 88 98 100 92 28 5 97 18 100 100 100 51 58 56 97 76 100 84 87 88 37 6 5 5 5
59 26 100 32 0 0 0 0 5 0 0 0 0 2 5 11 6 10 78 100 96 30 7 58 100 52 66 100 71 98 100 100 71 83 98 85 76 87 27 5 6 5 5
73 91 75 100 70 1 0 0 4 4 0 0 0 4 5 6 5 5 62 100 95 5 9 100 13 97 82 21 71 100 100 100 98 67 53 7 28 75 39 7 5 8 4
96 100 100 99 100 44 0 0 0 2 0 0 0 2 5 5 5 5 13 99 56 5 100 100 97 76 56 98 100 100 100 100 63 55 73 62 5 32 93 78 14 5 18
100 100 100 100 100 100 28 0 0 3 0 0 0 1 5 94 84 5 5 3 5 5 100 29 99 100 100 100 100 100 100 100 100 100 99 70 82 100 100 80 41 100 100
100 100 100 100 100 100 89 0 0 1 6 2 5 2 11 99 37 5 5 6 5 24 92 43 88 100 100 100 100 100 100 99 89 97 82 97 100 100 93 5 47 5 13
100 100 100 100 100 100 100 11 0 0 3 21 5 23 41 100 5 76 12 4 5 31 67 28 64 100 100 100 91 100 100 80 98 98 97 100 100 100 92 32 5 10 5
100 100 100 100 100 100 100 36 80 3 3 5 5 39 8 93 80 6 5 5 44 31 100 98 52 18 100 100 99 100 83 98 82 72 58 90 100 62 40 100 10 33 63
92 100 100 100 100 100 99 33 100 5 5 92 8 5 70 75 87 98 43 5 6 88 90 5 92 100 28 27 91 100 54 60 100 80 7 100 74 92 100 100 5 100 100
5 94 100 100 100 100 76 84 100 100 14 5 5 3 56 92 96 46 45 6 78 99 37 32 51 100 97 29 50 79 65 100 87 87 34 60 100 63 20 39 6 58 85
0 0 17 100 100 91 99 100 86 98 70 98 20 4 24 34 87 100 82 92 27 94 55 19 5 86 97 89 29 100 96 93 44 95 98 46 48 66 5 5 99 6 44
0 0 0 82 100 100 100 64 100 89 82 22 100 79 7 5 48 41 54 12 95 41 5 33 100 56 100 8 10 37 10 67 80 52 68 100 85 13 14 9 5 14 7
0 0 0 0 100 100 100 91 98 100 97 58 10 86 100 98 77 47 82 54 5 14 4 5 9 28 83 5 27 100 99 16 29 63 11 45 7 86 56 89 12 99 71
0 0 0 0 0 91 100 98 92 71 86 88 100 100 99 72 84 97 93 33 5 8 5 44 5 14 98 99 97 86 97 70 30 58 98 100 13 63 42 100 54 52 100
0 0 0 0 0 0 59 70 89 31 90 99 80 100 100 100 85 84 100 76 71 15 51 5 26 100 98 90 68 94 58 27 100 84 8 8 2 3 99 10 7 81 100
0 0 0 0 0 0 2 98 98 59 96 95 96 100 100 100 77 48 4 6 18 26 43 98 15 92 88 32 63 14 96 66 11 47 57 12 98 48 83 6 76 100 100
0 0 0 0 0 0 0 8 78 95 100 99 80 30 100 66 69 100 66 100 100 99 69 10 5 11 18 62 100 78 47 100 69 86 77 99 33 100 100 100 100 89 100
0 0 0 0 0 0 0 0 4 100 100 100 98 79 51 50 57 100 100 100 100 100 100 95 97 5 8 92 86 100 98 11 5 60 30 17 72 100 100 100 100 100 100
0 0 0 0 0 2 0 0 0 76 100 100 100 32 5 79 76 100 98 96 100 100 100 100 100 90 99 100 100 100 38 5 9 29 95 5 57 100 100 100 100 100 100
0 0 0 0 0 0 0 0 0 0 100 100 49 97 76 20 89 100 100 100 100 100 100 100 100 70 91 62 100 95 5 47 38 42 43 6 35 79 100 100 100 100 100
0 0 0 0 0 0 0 0 0 4 100 100 100 100 100 97 79 100 100 100 100 100 100 100 100 100 56 68 24 5 10 50 84 68 80 17 88 100 100 100 100 100 96
0 0 0 0 0 0 0 1 0 3 71 100 100 100 100 100 100 100 100 97 100 100 100 100 88 100 100 98 14 38 94 100 98 99 53 39 100 99 100 100 96 100 100
0 0 0 0 0 0 0 1 0 2 20 100 100 100 100 98 96 100 100 100 100 100 100 100 100 100 100 100 100 100 100 100 100 100 31 56 70 77 100 100 100 100 100
0 0 0 0 0 0 0 0 0 0 0 78 100 100 100 98 100 100 100 100 100 100 100 100 100 81 100 100 100 100 100 100 100 100 94 100 100 100 96 100 100 100 100